Year,Month,Day,Hour,Minute,Value (Times are PST for temperature in C)
2020,08,13,00,00,11.90
2020,08,13,00,01,11.90
2020,08,13,00,02,11.90
2020,08,13,00,03,11.90
2020,08,13,00,04,11.90
2020,08,13,00,05,11.80
2020,08,13,00,06,11.80
2020,08,13,00,07,11.80
2020,08,13,00,08,11.80
2020,08,13,00,09,11.80
2020,08,13,00,10,11.70
2020,08,13,00,11,11.70
2020,08,13,00,12,11.70
2020,08,13,00,13,11.70
2020,08,13,00,14,11.70
2020,08,13,00,15,11.70
2020,08,13,00,16,11.60
2020,08,13,00,17,11.60
2020,08,13,00,18,11.60
2020,08,13,00,19,11.50
2020,08,13,00,20,11.50
2020,08,13,00,21,11.50
2020,08,13,00,22,11.40
2020,08,13,00,23,11.40
2020,08,13,00,24,11.40
2020,08,13,00,25,11.40
2020,08,13,00,26,11.40
2020,08,13,00,27,11.30
2020,08,13,00,28,11.30
2020,08,13,00,29,11.30
2020,08,13,00,30,11.30
2020,08,13,00,31,11.30
2020,08,13,00,32,11.20
2020,08,13,00,33,11.20
2020,08,13,00,34,11.20
2020,08,13,00,35,11.10
2020,08,13,00,36,11.10
2020,08,13,00,37,11.10
2020,08,13,00,38,11.10
2020,08,13,00,39,11.10
2020,08,13,00,40,11.10
2020,08,13,00,41,11.10
2020,08,13,00,42,11.00
2020,08,13,00,43,11.00
2020,08,13,00,44,11.00
2020,08,13,00,45,11.00
2020,08,13,00,46,10.90
2020,08,13,00,47,10.90
2020,08,13,00,48,10.90
2020,08,13,00,49,10.90
2020,08,13,00,50,10.90
2020,08,13,00,51,10.80
2020,08,13,00,52,10.80
2020,08,13,00,53,10.80
2020,08,13,00,54,10.80
2020,08,13,00,55,10.80
2020,08,13,00,56,10.70
2020,08,13,00,57,10.70
2020,08,13,00,58,10.70
2020,08,13,00,59,10.70
2020,08,13,01,00,10.70
2020,08,13,01,01,10.60
2020,08,13,01,02,10.60
2020,08,13,01,03,10.60
2020,08,13,01,04,10.60
2020,08,13,01,05,10.60
2020,08,13,01,06,10.60
2020,08,13,01,07,10.50
2020,08,13,01,08,10.50
2020,08,13,01,09,10.50
2020,08,13,01,10,10.50
2020,08,13,01,11,10.40
2020,08,13,01,12,10.40
2020,08,13,01,13,10.40
2020,08,13,01,14,10.40
2020,08,13,01,15,10.40
2020,08,13,01,16,10.40
2020,08,13,01,17,10.30
2020,08,13,01,18,10.30
2020,08,13,01,19,10.30
2020,08,13,01,20,10.30
2020,08,13,01,21,10.30
2020,08,13,01,22,10.20
2020,08,13,01,23,10.20
2020,08,13,01,24,10.20
2020,08,13,01,25,10.20
2020,08,13,01,26,10.20
2020,08,13,01,27,10.20
2020,08,13,01,28,10.20
2020,08,13,01,29,10.10
2020,08,13,01,30,10.10
2020,08,13,01,31,10.10
2020,08,13,01,32,10.10
2020,08,13,01,33,10.10
2020,08,13,01,34,10.10
2020,08,13,01,35,10.10
2020,08,13,01,36,10.10
2020,08,13,01,37,10.10
2020,08,13,01,38,10.10
2020,08,13,01,39,10.10
2020,08,13,01,40,10.00
2020,08,13,01,41,10.00
2020,08,13,01,42,10.00
2020,08,13,01,43,10.00
2020,08,13,01,44,10.00
2020,08,13,01,45,9.90
2020,08,13,01,46,9.90
2020,08,13,01,47,9.90
2020,08,13,01,48,9.90
2020,08,13,01,49,9.90
2020,08,13,01,50,9.90
2020,08,13,01,51,9.80
2020,08,13,01,52,9.80
2020,08,13,01,53,9.80
2020,08,13,01,54,9.80
2020,08,13,01,55,9.80
2020,08,13,01,56,9.80
2020,08,13,01,57,9.80
2020,08,13,01,58,9.80
2020,08,13,01,59,9.80
2020,08,13,02,00,9.80
2020,08,13,02,01,9.80
2020,08,13,02,02,9.70
2020,08,13,02,03,9.70
2020,08,13,02,04,9.70
2020,08,13,02,05,9.70
2020,08,13,02,06,9.70
2020,08,13,02,07,9.70
2020,08,13,02,08,9.60
2020,08,13,02,09,9.60
2020,08,13,02,10,9.60
2020,08,13,02,11,9.60
2020,08,13,02,12,9.60
2020,08,13,02,13,9.60
2020,08,13,02,14,9.60
2020,08,13,02,15,9.60
2020,08,13,02,16,9.60
2020,08,13,02,17,9.60
2020,08,13,02,18,9.60
2020,08,13,02,19,9.60
2020,08,13,02,20,9.50
2020,08,13,02,21,9.50
2020,08,13,02,22,9.50
2020,08,13,02,23,9.50
2020,08,13,02,24,9.50
2020,08,13,02,25,9.50
2020,08,13,02,26,9.50
2020,08,13,02,27,9.40
2020,08,13,02,28,9.40
2020,08,13,02,29,9.40
2020,08,13,02,30,9.40
2020,08,13,02,31,9.40
2020,08,13,02,32,9.40
2020,08,13,02,33,9.40
2020,08,13,02,34,9.40
2020,08,13,02,35,9.30
2020,08,13,02,36,9.30
2020,08,13,02,37,9.30
2020,08,13,02,38,9.30
2020,08,13,02,39,9.30
2020,08,13,02,40,9.30
2020,08,13,02,41,9.30
2020,08,13,02,42,9.30
2020,08,13,02,43,9.30
2020,08,13,02,44,9.20
2020,08,13,02,45,9.20
2020,08,13,02,46,9.20
2020,08,13,02,47,9.20
2020,08,13,02,48,9.20
2020,08,13,02,49,9.20
2020,08,13,02,50,9.20
2020,08,13,02,51,9.20
2020,08,13,02,52,9.20
2020,08,13,02,53,9.20
2020,08,13,02,54,9.20
2020,08,13,02,55,9.20
2020,08,13,02,56,9.20
2020,08,13,02,57,9.20
2020,08,13,02,58,9.20
2020,08,13,02,59,9.20
2020,08,13,03,00,9.20
2020,08,13,03,01,9.20
2020,08,13,03,02,9.20
2020,08,13,03,03,9.10
2020,08,13,03,04,9.10
2020,08,13,03,05,9.10
2020,08,13,03,06,9.10
2020,08,13,03,07,9.10
2020,08,13,03,08,9.10
2020,08,13,03,09,9.10
2020,08,13,03,10,9.10
2020,08,13,03,11,9.00
2020,08,13,03,12,9.00
2020,08,13,03,13,9.00
2020,08,13,03,14,9.00
2020,08,13,03,15,9.00
2020,08,13,03,16,8.90
2020,08,13,03,17,8.90
2020,08,13,03,18,8.90
2020,08,13,03,19,8.90
2020,08,13,03,20,8.90
2020,08,13,03,21,8.90
2020,08,13,03,22,8.90
2020,08,13,03,23,8.90
2020,08,13,03,24,8.80
2020,08,13,03,25,8.80
2020,08,13,03,26,8.80
2020,08,13,03,27,8.80
2020,08,13,03,28,8.80
2020,08,13,03,29,8.80
2020,08,13,03,30,8.80
2020,08,13,03,31,8.80
2020,08,13,03,32,8.70
2020,08,13,03,33,8.70
2020,08,13,03,34,8.70
2020,08,13,03,35,8.70
2020,08,13,03,36,8.70
2020,08,13,03,37,8.70
2020,08,13,03,38,8.70
2020,08,13,03,39,8.70
2020,08,13,03,40,8.70
2020,08,13,03,41,8.70
2020,08,13,03,42,8.70
2020,08,13,03,43,8.70
2020,08,13,03,44,8.70
2020,08,13,03,45,8.60
2020,08,13,03,46,8.60
2020,08,13,03,47,8.70
2020,08,13,03,48,8.60
2020,08,13,03,49,8.60
2020,08,13,03,50,8.60
2020,08,13,03,51,8.60
2020,08,13,03,52,8.60
2020,08,13,03,53,8.60
2020,08,13,03,54,8.60
2020,08,13,03,55,8.60
2020,08,13,03,56,8.60
2020,08,13,03,57,8.60
2020,08,13,03,58,8.60
2020,08,13,03,59,8.50
2020,08,13,04,00,8.50
2020,08,13,04,01,8.50
2020,08,13,04,02,8.50
2020,08,13,04,03,8.50
2020,08,13,04,04,8.50
2020,08,13,04,05,8.50
2020,08,13,04,06,8.50
2020,08,13,04,07,8.50
2020,08,13,04,08,8.50
2020,08,13,04,09,8.50
2020,08,13,04,10,8.50
2020,08,13,04,11,8.50
2020,08,13,04,12,8.40
2020,08,13,04,13,8.40
2020,08,13,04,14,8.40
2020,08,13,04,15,8.40
2020,08,13,04,16,8.40
2020,08,13,04,17,8.40
2020,08,13,04,18,8.40
2020,08,13,04,19,8.40
2020,08,13,04,20,8.40
2020,08,13,04,21,8.40
2020,08,13,04,22,8.40
2020,08,13,04,23,8.40
2020,08,13,04,24,8.40
2020,08,13,04,25,8.40
2020,08,13,04,26,8.40
2020,08,13,04,27,8.40
2020,08,13,04,28,8.40
2020,08,13,04,29,8.40
2020,08,13,04,30,8.40
2020,08,13,04,31,8.40
2020,08,13,04,32,8.40
2020,08,13,04,33,8.40
2020,08,13,04,34,8.50
2020,08,13,04,35,8.40
2020,08,13,04,36,8.40
2020,08,13,04,37,8.40
2020,08,13,04,38,8.40
2020,08,13,04,39,8.40
2020,08,13,04,40,8.40
2020,08,13,04,41,8.40
2020,08,13,04,42,8.50
2020,08,13,04,43,8.40
2020,08,13,04,44,8.40
2020,08,13,04,45,8.40
2020,08,13,04,46,8.40
2020,08,13,04,47,8.40
2020,08,13,04,48,8.40
2020,08,13,04,49,8.40
2020,08,13,04,50,8.40
2020,08,13,04,51,8.40
2020,08,13,04,52,8.40
2020,08,13,04,53,8.40
2020,08,13,04,54,8.40
2020,08,13,04,55,8.40
2020,08,13,04,56,8.40
2020,08,13,04,57,8.40
2020,08,13,04,58,8.40
2020,08,13,04,59,8.40
2020,08,13,05,00,8.40
2020,08,13,05,01,8.40
2020,08,13,05,02,8.40
2020,08,13,05,03,8.40
2020,08,13,05,04,8.40
2020,08,13,05,05,8.40
2020,08,13,05,06,8.40
2020,08,13,05,07,8.40
2020,08,13,05,08,8.40
2020,08,13,05,09,8.40
2020,08,13,05,10,8.40
2020,08,13,05,11,8.40
2020,08,13,05,12,8.40
2020,08,13,05,13,8.40
2020,08,13,05,14,8.40
2020,08,13,05,15,8.40
2020,08,13,05,16,8.40
2020,08,13,05,17,8.40
2020,08,13,05,18,8.40
2020,08,13,05,19,8.30
2020,08,13,05,20,8.30
2020,08,13,05,21,8.30
2020,08,13,05,22,8.30
2020,08,13,05,23,8.30
2020,08,13,05,24,8.30
2020,08,13,05,25,8.30
2020,08,13,05,26,8.30
2020,08,13,05,27,8.30
2020,08,13,05,28,8.20
2020,08,13,05,29,8.20
2020,08,13,05,30,8.20
2020,08,13,05,31,8.20
2020,08,13,05,32,8.20
2020,08,13,05,33,8.20
2020,08,13,05,34,8.20
2020,08,13,05,35,8.20
2020,08,13,05,36,8.10
2020,08,13,05,37,8.10
2020,08,13,05,38,8.10
2020,08,13,05,39,8.10
2020,08,13,05,40,8.10
2020,08,13,05,41,8.00
2020,08,13,05,42,8.00
2020,08,13,05,43,8.00
2020,08,13,05,44,8.00
2020,08,13,05,45,8.00
2020,08,13,05,46,7.90
2020,08,13,05,47,7.90
2020,08,13,05,48,7.90
2020,08,13,05,49,7.90
2020,08,13,05,50,7.90
2020,08,13,05,51,7.90
2020,08,13,05,52,7.90
2020,08,13,05,53,7.90
2020,08,13,05,54,7.90
2020,08,13,05,55,7.80
2020,08,13,05,56,7.80
2020,08,13,05,57,7.80
2020,08,13,05,58,7.80
2020,08,13,05,59,7.80
2020,08,13,06,00,7.80
2020,08,13,06,01,7.80
2020,08,13,06,02,7.80
2020,08,13,06,03,7.70
2020,08,13,06,04,7.70
2020,08,13,06,05,7.70
2020,08,13,06,06,7.70
2020,08,13,06,07,7.70
2020,08,13,06,08,7.70
2020,08,13,06,09,7.70
2020,08,13,06,10,7.70
2020,08,13,06,11,7.70
2020,08,13,06,12,7.70
2020,08,13,06,13,7.70
2020,08,13,06,14,7.70
2020,08,13,06,15,7.70
2020,08,13,06,16,7.70
2020,08,13,06,17,7.60
2020,08,13,06,18,7.60
2020,08,13,06,19,7.60
2020,08,13,06,20,7.60
2020,08,13,06,21,7.60
2020,08,13,06,22,7.60
2020,08,13,06,23,7.60
2020,08,13,06,24,7.60
2020,08,13,06,25,7.60
2020,08,13,06,26,7.60
2020,08,13,06,27,7.60
2020,08,13,06,28,7.60
2020,08,13,06,29,7.60
2020,08,13,06,30,7.60
2020,08,13,06,31,7.60
2020,08,13,06,32,7.50
2020,08,13,06,33,7.50
2020,08,13,06,34,7.50
2020,08,13,06,35,7.50
2020,08,13,06,36,7.50
2020,08,13,06,37,7.50
2020,08,13,06,38,7.50
2020,08,13,06,39,7.40
2020,08,13,06,40,7.40
2020,08,13,06,41,7.40
2020,08,13,06,42,7.40
2020,08,13,06,43,7.40
2020,08,13,06,44,7.40
2020,08,13,06,45,7.40
2020,08,13,06,46,7.40
2020,08,13,06,47,7.40
2020,08,13,06,48,7.40
2020,08,13,06,49,7.30
2020,08,13,06,50,7.30
2020,08,13,06,51,7.30
2020,08,13,06,52,7.30
2020,08,13,06,53,7.30
2020,08,13,06,54,7.30
2020,08,13,06,55,7.30
2020,08,13,06,56,7.30
2020,08,13,06,57,7.30
2020,08,13,06,58,7.30
2020,08,13,06,59,7.30
2020,08,13,07,00,7.30
2020,08,13,07,01,7.30
2020,08,13,07,02,7.30
2020,08,13,07,03,7.30
2020,08,13,07,04,7.30
2020,08,13,07,05,7.30
2020,08,13,07,06,7.30
2020,08,13,07,07,7.30
2020,08,13,07,08,7.30
2020,08,13,07,09,7.30
2020,08,13,07,10,7.30
2020,08,13,07,11,7.30
2020,08,13,07,12,7.30
2020,08,13,07,13,7.40
2020,08,13,07,14,7.40
2020,08,13,07,15,7.40
2020,08,13,07,16,7.40
2020,08,13,07,17,7.40
2020,08,13,07,18,7.40
2020,08,13,07,19,7.40
2020,08,13,07,20,7.40
2020,08,13,07,21,7.40
2020,08,13,07,22,7.40
2020,08,13,07,23,7.40
2020,08,13,07,24,7.50
2020,08,13,07,25,7.50
2020,08,13,07,26,7.50
2020,08,13,07,27,7.60
2020,08,13,07,28,7.60
2020,08,13,07,29,7.60
2020,08,13,07,30,7.70
2020,08,13,07,31,7.70
2020,08,13,07,32,7.70
2020,08,13,07,33,7.70
2020,08,13,07,34,7.80
2020,08,13,07,35,7.80
2020,08,13,07,36,7.90
2020,08,13,07,37,7.90
2020,08,13,07,38,8.00
2020,08,13,07,39,8.00
2020,08,13,07,40,8.00
2020,08,13,07,41,8.10
2020,08,13,07,42,8.10
2020,08,13,07,43,8.10
2020,08,13,07,44,8.20
2020,08,13,07,45,8.20
2020,08,13,07,46,8.30
2020,08,13,07,47,8.30
2020,08,13,07,48,8.40
2020,08,13,07,49,8.50
2020,08,13,07,50,8.60
2020,08,13,07,51,8.60
2020,08,13,07,52,8.70
2020,08,13,07,53,8.80
2020,08,13,07,54,8.80
2020,08,13,07,55,8.90
2020,08,13,07,56,9.00
2020,08,13,07,57,9.00
2020,08,13,07,58,9.10
2020,08,13,07,59,9.20
2020,08,13,08,00,9.30
2020,08,13,08,01,9.40
2020,08,13,08,02,9.40
2020,08,13,08,03,9.50
2020,08,13,08,04,9.60
2020,08,13,08,05,9.70
2020,08,13,08,06,9.80
2020,08,13,08,07,9.90
2020,08,13,08,08,10.00
2020,08,13,08,09,10.10
2020,08,13,08,10,10.20
2020,08,13,08,11,10.40
2020,08,13,08,12,10.40
2020,08,13,08,13,10.60
2020,08,13,08,14,10.70
2020,08,13,08,15,10.80
2020,08,13,08,16,10.80
2020,08,13,08,17,10.90
2020,08,13,08,18,11.00
2020,08,13,08,19,11.10
2020,08,13,08,20,11.10
2020,08,13,08,21,11.20
2020,08,13,08,22,11.30
2020,08,13,08,23,11.30
2020,08,13,08,24,11.40
2020,08,13,08,25,11.50
2020,08,13,08,26,11.50
2020,08,13,08,27,11.60
2020,08,13,08,28,11.70
2020,08,13,08,29,11.70
2020,08,13,08,30,11.80
2020,08,13,08,31,11.80
2020,08,13,08,32,11.90
2020,08,13,08,33,12.00
2020,08,13,08,34,12.10
2020,08,13,08,35,12.20
2020,08,13,08,36,12.20
2020,08,13,08,37,12.30
2020,08,13,08,38,12.40
2020,08,13,08,39,12.40
2020,08,13,08,40,12.50
2020,08,13,08,41,12.60
2020,08,13,08,42,12.60
2020,08,13,08,43,12.70
2020,08,13,08,44,12.80
2020,08,13,08,45,12.90
2020,08,13,08,46,12.90
2020,08,13,08,47,13.00
2020,08,13,08,48,13.10
2020,08,13,08,49,13.20
2020,08,13,08,50,13.30
2020,08,13,08,51,13.30
2020,08,13,08,52,13.40
2020,08,13,08,53,13.50
2020,08,13,08,54,13.60
2020,08,13,08,55,13.60
2020,08,13,08,56,13.70
2020,08,13,08,57,13.80
2020,08,13,08,58,13.90
2020,08,13,08,59,13.90
2020,08,13,09,00,14.00
2020,08,13,09,01,14.10
2020,08,13,09,02,14.20
2020,08,13,09,03,14.30
2020,08,13,09,04,14.30
2020,08,13,09,05,14.40
2020,08,13,09,06,14.50
2020,08,13,09,07,14.60
2020,08,13,09,08,14.60
2020,08,13,09,09,14.80
2020,08,13,09,10,14.90
2020,08,13,09,11,15.00
2020,08,13,09,12,15.20
2020,08,13,09,13,15.30
2020,08,13,09,14,15.40
2020,08,13,09,15,15.50
2020,08,13,09,16,15.60
2020,08,13,09,17,15.80
2020,08,13,09,18,15.90
2020,08,13,09,19,16.00
2020,08,13,09,20,16.00
2020,08,13,09,21,16.10
2020,08,13,09,22,16.20
2020,08,13,09,23,16.30
2020,08,13,09,24,16.40
2020,08,13,09,25,16.40
2020,08,13,09,26,16.50
2020,08,13,09,27,16.60
2020,08,13,09,28,16.70
2020,08,13,09,29,16.80
2020,08,13,09,30,16.90
2020,08,13,09,31,17.00
2020,08,13,09,32,17.10
2020,08,13,09,33,17.20
2020,08,13,09,34,17.30
2020,08,13,09,35,17.30
2020,08,13,09,36,17.30
2020,08,13,09,37,17.40
2020,08,13,09,38,17.40
2020,08,13,09,39,17.40
2020,08,13,09,40,17.50
2020,08,13,09,41,17.50
2020,08,13,09,42,17.60
2020,08,13,09,43,17.60
2020,08,13,09,44,17.60
2020,08,13,09,45,17.60
2020,08,13,09,46,17.70
2020,08,13,09,47,17.70
2020,08,13,09,48,17.70
2020,08,13,09,49,17.70
2020,08,13,09,50,17.70
2020,08,13,09,51,17.70
2020,08,13,09,52,17.70
2020,08,13,09,53,17.70
2020,08,13,09,54,17.70
2020,08,13,09,55,17.70
2020,08,13,09,56,17.70
2020,08,13,09,57,17.70
2020,08,13,09,58,17.70
2020,08,13,09,59,17.70
2020,08,13,10,00,17.80
2020,08,13,10,01,17.80
2020,08,13,10,02,17.80
2020,08,13,10,03,17.90
2020,08,13,10,04,17.90
2020,08,13,10,05,18.00
2020,08,13,10,06,18.00
2020,08,13,10,07,18.10
2020,08,13,10,08,18.20
2020,08,13,10,09,18.30
2020,08,13,10,10,18.30
2020,08,13,10,11,18.40
2020,08,13,10,12,18.40
2020,08,13,10,13,18.40
2020,08,13,10,14,18.50
2020,08,13,10,15,18.60
2020,08,13,10,16,18.60
2020,08,13,10,17,18.60
2020,08,13,10,18,18.70
2020,08,13,10,19,18.70
2020,08,13,10,20,18.80
2020,08,13,10,21,18.80
2020,08,13,10,22,18.80
2020,08,13,10,23,18.80
2020,08,13,10,24,18.80
2020,08,13,10,25,18.80
2020,08,13,10,26,18.80
2020,08,13,10,27,18.80
2020,08,13,10,28,18.80
2020,08,13,10,29,18.80
2020,08,13,10,30,18.80
2020,08,13,10,31,18.80
2020,08,13,10,32,18.80
2020,08,13,10,33,18.80
2020,08,13,10,34,18.80
2020,08,13,10,35,18.90
2020,08,13,10,36,18.90
2020,08,13,10,37,18.90
2020,08,13,10,38,19.00
2020,08,13,10,39,19.00
2020,08,13,10,40,19.10
2020,08,13,10,41,19.10
2020,08,13,10,42,19.20
2020,08,13,10,43,19.20
2020,08,13,10,44,19.30
2020,08,13,10,45,19.30
2020,08,13,10,46,19.40
2020,08,13,10,47,19.40
2020,08,13,10,48,19.50
2020,08,13,10,49,19.50
2020,08,13,10,50,19.60
2020,08,13,10,51,19.60
2020,08,13,10,52,19.70
2020,08,13,10,53,19.70
2020,08,13,10,54,19.80
2020,08,13,10,55,19.80
2020,08,13,10,56,19.90
2020,08,13,10,57,19.90
2020,08,13,10,58,20.00
2020,08,13,10,59,20.10
2020,08,13,11,00,20.10
2020,08,13,11,01,20.20
2020,08,13,11,02,20.30
2020,08,13,11,03,20.30
2020,08,13,11,04,20.40
2020,08,13,11,05,20.50
2020,08,13,11,06,20.50
2020,08,13,11,07,20.60
2020,08,13,11,08,20.60
2020,08,13,11,09,20.60
2020,08,13,11,10,20.70
2020,08,13,11,11,20.70
2020,08,13,11,12,20.70
2020,08,13,11,13,20.80
2020,08,13,11,14,20.80
2020,08,13,11,15,20.80
2020,08,13,11,16,20.80
2020,08,13,11,17,20.90
2020,08,13,11,18,20.90
2020,08,13,11,19,20.90
2020,08,13,11,20,21.00
2020,08,13,11,21,21.00
2020,08,13,11,22,21.00
2020,08,13,11,23,21.10
2020,08,13,11,24,21.10
2020,08,13,11,25,21.20
2020,08,13,11,26,21.20
2020,08,13,11,27,21.30
2020,08,13,11,28,21.30
2020,08,13,11,29,21.30
2020,08,13,11,30,21.30
2020,08,13,11,31,21.20
2020,08,13,11,32,21.20
2020,08,13,11,33,21.10
2020,08,13,11,34,21.10
2020,08,13,11,35,21.00
2020,08,13,11,36,21.00
2020,08,13,11,37,21.00
2020,08,13,11,38,21.00
2020,08,13,11,39,21.00
2020,08,13,11,40,21.10
2020,08,13,11,41,21.10
2020,08,13,11,42,21.10
2020,08,13,11,43,21.10
2020,08,13,11,44,21.10
2020,08,13,11,45,21.10
2020,08,13,11,46,21.10
2020,08,13,11,47,21.10
2020,08,13,11,48,21.10
2020,08,13,11,49,21.20
2020,08,13,11,50,21.20
2020,08,13,11,51,21.20
2020,08,13,11,52,21.30
2020,08,13,11,53,21.30
2020,08,13,11,54,21.30
2020,08,13,11,55,21.30
2020,08,13,11,56,21.30
2020,08,13,11,57,21.30
2020,08,13,11,58,21.40
2020,08,13,11,59,21.40
2020,08,13,12,00,21.50
2020,08,13,12,01,21.50
2020,08,13,12,02,21.50
2020,08,13,12,03,21.60
2020,08,13,12,04,21.60
2020,08,13,12,05,21.70
2020,08,13,12,06,21.80
2020,08,13,12,07,21.80
2020,08,13,12,08,21.90
2020,08,13,12,09,22.00
2020,08,13,12,10,22.10
2020,08,13,12,11,22.10
2020,08,13,12,12,22.20
2020,08,13,12,13,22.20
2020,08,13,12,14,22.20
2020,08,13,12,15,22.30
2020,08,13,12,16,22.30
2020,08,13,12,17,22.30
2020,08,13,12,18,22.30
2020,08,13,12,19,22.30
2020,08,13,12,20,22.30
2020,08,13,12,21,22.30
2020,08,13,12,22,22.30
2020,08,13,12,23,22.20
2020,08,13,12,24,22.20
2020,08,13,12,25,22.20
2020,08,13,12,26,22.10
2020,08,13,12,27,22.10
2020,08,13,12,28,22.10
2020,08,13,12,29,22.00
2020,08,13,12,30,21.90
2020,08,13,12,31,21.90
2020,08,13,12,32,21.90
2020,08,13,12,33,21.80
2020,08,13,12,34,21.80
2020,08,13,12,35,21.80
2020,08,13,12,36,21.70
2020,08,13,12,37,21.70
2020,08,13,12,38,21.70
2020,08,13,12,39,21.70
2020,08,13,12,40,21.60
2020,08,13,12,41,21.60
2020,08,13,12,42,21.60
2020,08,13,12,43,21.60
2020,08,13,12,44,21.60
2020,08,13,12,45,21.60
2020,08,13,12,46,21.50
2020,08,13,12,47,21.50
2020,08,13,12,48,21.50
2020,08,13,12,49,21.50
2020,08,13,12,50,21.50
2020,08,13,12,51,21.60
2020,08,13,12,52,21.60
2020,08,13,12,53,21.70
2020,08,13,12,54,21.80
2020,08,13,12,55,21.90
2020,08,13,12,56,21.90
2020,08,13,12,57,22.00
2020,08,13,12,58,22.00
2020,08,13,12,59,22.10
2020,08,13,13,00,22.10
2020,08,13,13,01,22.10
2020,08,13,13,02,22.20
2020,08,13,13,03,22.20
2020,08,13,13,04,22.30
2020,08,13,13,05,22.40
2020,08,13,13,06,22.50
2020,08,13,13,07,22.50
2020,08,13,13,08,22.50
2020,08,13,13,09,22.40
2020,08,13,13,10,22.30
2020,08,13,13,11,22.30
2020,08,13,13,12,22.20
2020,08,13,13,13,22.20
2020,08,13,13,14,22.30
2020,08,13,13,15,22.30
2020,08,13,13,16,22.30
2020,08,13,13,17,22.40
2020,08,13,13,18,22.50
2020,08,13,13,19,22.50
2020,08,13,13,20,22.60
2020,08,13,13,21,22.70
2020,08,13,13,22,22.70
2020,08,13,13,23,22.80
2020,08,13,13,24,22.80
2020,08,13,13,25,22.90
2020,08,13,13,26,23.00
2020,08,13,13,27,23.00
2020,08,13,13,28,23.00
2020,08,13,13,29,23.10
2020,08,13,13,30,23.10
2020,08,13,13,31,23.20
2020,08,13,13,32,23.20
2020,08,13,13,33,23.20
2020,08,13,13,34,23.10
2020,08,13,13,35,23.10
2020,08,13,13,36,23.10
2020,08,13,13,37,23.10
2020,08,13,13,38,23.10
2020,08,13,13,39,23.10
2020,08,13,13,40,23.10
2020,08,13,13,41,23.10
2020,08,13,13,42,23.00
2020,08,13,13,43,22.90
2020,08,13,13,44,22.90
2020,08,13,13,45,22.90
2020,08,13,13,46,22.90
2020,08,13,13,47,22.90
2020,08,13,13,48,22.90
2020,08,13,13,49,22.90
2020,08,13,13,50,22.90
2020,08,13,13,51,22.90
2020,08,13,13,52,22.90
2020,08,13,13,53,23.00
2020,08,13,13,54,23.10
2020,08,13,13,55,23.10
2020,08,13,13,56,23.20
2020,08,13,13,57,23.20
2020,08,13,13,58,23.30
2020,08,13,13,59,23.30
2020,08,13,14,00,23.30
2020,08,13,14,01,23.20
2020,08,13,14,02,23.20
2020,08,13,14,03,23.30
2020,08,13,14,04,23.30
2020,08,13,14,05,23.30
2020,08,13,14,06,23.40
2020,08,13,14,07,23.40
2020,08,13,14,08,23.40
2020,08,13,14,09,23.30
2020,08,13,14,10,23.30
2020,08,13,14,11,23.30
2020,08,13,14,12,23.30
2020,08,13,14,13,23.30
2020,08,13,14,14,23.30
2020,08,13,14,15,23.40
2020,08,13,14,16,23.40
2020,08,13,14,17,23.50
2020,08,13,14,18,23.60
2020,08,13,14,19,23.60
2020,08,13,14,20,23.70
2020,08,13,14,21,23.70
2020,08,13,14,22,23.70
2020,08,13,14,23,23.70
2020,08,13,14,24,23.70
2020,08,13,14,25,23.60
2020,08,13,14,26,23.60
2020,08,13,14,27,23.60
2020,08,13,14,28,23.60
2020,08,13,14,29,23.60
2020,08,13,14,30,23.60
2020,08,13,14,31,23.70
2020,08,13,14,32,23.70
2020,08,13,14,33,23.80
2020,08,13,14,34,23.80
2020,08,13,14,35,23.80
2020,08,13,14,36,23.70
2020,08,13,14,37,23.70
2020,08,13,14,38,23.60
2020,08,13,14,39,23.60
2020,08,13,14,40,23.60
2020,08,13,14,41,23.50
2020,08,13,14,42,23.50
2020,08,13,14,43,23.40
2020,08,13,14,44,23.30
2020,08,13,14,45,23.30
2020,08,13,14,46,23.20
2020,08,13,14,47,23.10
2020,08,13,14,48,23.10
2020,08,13,14,49,23.00
2020,08,13,14,50,23.00
2020,08,13,14,51,22.90
2020,08,13,14,52,23.00
2020,08,13,14,53,23.00
2020,08,13,14,54,23.10
2020,08,13,14,55,23.10
2020,08,13,14,56,23.20
2020,08,13,14,57,23.20
2020,08,13,14,58,23.20
2020,08,13,14,59,23.20
2020,08,13,15,00,23.20
2020,08,13,15,01,23.20
2020,08,13,15,02,23.20
2020,08,13,15,03,23.10
2020,08,13,15,04,23.10
2020,08,13,15,05,23.10
2020,08,13,15,06,23.10
2020,08,13,15,07,23.10
2020,08,13,15,08,23.10
2020,08,13,15,09,23.10
2020,08,13,15,10,23.10
2020,08,13,15,11,23.00
2020,08,13,15,12,23.00
2020,08,13,15,13,23.00
2020,08,13,15,14,22.90
2020,08,13,15,15,22.80
2020,08,13,15,16,22.80
2020,08,13,15,17,22.80
2020,08,13,15,18,22.80
2020,08,13,15,19,22.80
2020,08,13,15,20,22.80
2020,08,13,15,21,23.00
2020,08,13,15,22,23.00
2020,08,13,15,23,23.10
2020,08,13,15,24,23.10
2020,08,13,15,25,23.20
2020,08,13,15,26,23.20
2020,08,13,15,27,23.20
2020,08,13,15,28,23.20
2020,08,13,15,29,23.30
2020,08,13,15,30,23.30
2020,08,13,15,31,23.30
2020,08,13,15,32,23.30
2020,08,13,15,33,23.40
2020,08,13,15,34,23.50
2020,08,13,15,35,23.60
2020,08,13,15,36,23.60
2020,08,13,15,37,23.70
2020,08,13,15,38,23.70
2020,08,13,15,39,23.70
2020,08,13,15,40,23.80
2020,08,13,15,41,23.80
2020,08,13,15,42,23.80
2020,08,13,15,43,23.90
2020,08,13,15,44,23.90
2020,08,13,15,45,23.90
2020,08,13,15,46,24.00
2020,08,13,15,47,23.90
2020,08,13,15,48,24.00
2020,08,13,15,49,24.00
2020,08,13,15,50,24.00
2020,08,13,15,51,24.00
2020,08,13,15,52,24.00
2020,08,13,15,53,24.00
2020,08,13,15,54,24.00
2020,08,13,15,55,23.90
2020,08,13,15,56,23.90
2020,08,13,15,57,23.90
2020,08,13,15,58,23.90
2020,08,13,15,59,23.90
2020,08,13,16,00,23.90
2020,08,13,16,01,23.90
2020,08,13,16,02,23.90
2020,08,13,16,03,24.00
2020,08,13,16,04,24.00
2020,08,13,16,05,24.00
2020,08,13,16,06,24.00
2020,08,13,16,07,24.00
2020,08,13,16,08,23.90
2020,08,13,16,09,23.90
2020,08,13,16,10,23.80
2020,08,13,16,11,23.70
2020,08,13,16,12,23.70
2020,08,13,16,13,23.70
2020,08,13,16,14,23.70
2020,08,13,16,15,23.70
2020,08,13,16,16,23.60
2020,08,13,16,17,23.60
2020,08,13,16,18,23.60
2020,08,13,16,19,23.60
2020,08,13,16,20,23.60
2020,08,13,16,21,23.60
2020,08,13,16,22,23.60
2020,08,13,16,23,23.70
2020,08,13,16,24,23.70
2020,08,13,16,25,23.70
2020,08,13,16,26,23.70
2020,08,13,16,27,23.70
2020,08,13,16,28,23.70
2020,08,13,16,29,23.70
2020,08,13,16,30,23.70
2020,08,13,16,31,23.70
2020,08,13,16,32,23.80
2020,08,13,16,33,23.80
2020,08,13,16,34,23.80
2020,08,13,16,35,23.80
2020,08,13,16,36,23.80
2020,08,13,16,37,23.80
2020,08,13,16,38,23.80
2020,08,13,16,39,23.80
2020,08,13,16,40,23.80
2020,08,13,16,41,23.80
2020,08,13,16,42,23.80
2020,08,13,16,43,23.70
2020,08,13,16,44,23.70
2020,08,13,16,45,23.60
2020,08,13,16,46,23.60
2020,08,13,16,47,23.60
2020,08,13,16,48,23.60
2020,08,13,16,49,23.60
2020,08,13,16,50,23.60
2020,08,13,16,51,23.60
2020,08,13,16,52,23.60
2020,08,13,16,53,23.60
2020,08,13,16,54,23.60
2020,08,13,16,55,23.60
2020,08,13,16,56,23.60
2020,08,13,16,57,23.60
2020,08,13,16,58,23.50
2020,08,13,16,59,23.50
2020,08,13,17,00,23.40
2020,08,13,17,01,23.40
2020,08,13,17,02,23.30
2020,08,13,17,03,23.20
2020,08,13,17,04,23.20
2020,08,13,17,05,23.20
2020,08,13,17,06,23.10
2020,08,13,17,07,23.10
2020,08,13,17,08,23.10
2020,08,13,17,09,23.00
2020,08,13,17,10,22.90
2020,08,13,17,11,22.90
2020,08,13,17,12,22.90
2020,08,13,17,13,22.90
2020,08,13,17,14,22.90
2020,08,13,17,15,22.90
2020,08,13,17,16,22.80
2020,08,13,17,17,22.70
2020,08,13,17,18,22.70
2020,08,13,17,19,22.70
2020,08,13,17,20,22.60
2020,08,13,17,21,22.60
2020,08,13,17,22,22.60
2020,08,13,17,23,22.50
2020,08,13,17,24,22.50
2020,08,13,17,25,22.50
2020,08,13,17,26,22.50
2020,08,13,17,27,22.50
2020,08,13,17,28,22.40
2020,08,13,17,29,22.40
2020,08,13,17,30,22.30
2020,08,13,17,31,22.30
2020,08,13,17,32,22.30
2020,08,13,17,33,22.20
2020,08,13,17,34,22.20
2020,08,13,17,35,22.20
2020,08,13,17,36,22.20